This is the latest recevied weather packets stored in our database for station/object N9DMT-13. If no packets are shown the sender has not sent any weather packets the latest 10 day(s).
| Time | Temp. | Humidity | Pressure | Rain* | Wind** | Luminosity | Snow |
|---|---|---|---|---|---|---|---|
| 1777426425 | 11.67° C | 63% | 982 hPa | 0 mm | - | - | - |
| 1777426124 | 11.67° C | 66% | 982 hPa | 0 mm | - | - | - |
| 1777425823 | 12.22° C | 65% | 982 hPa | 0 mm | - | - | - |
| 1777425522 | 12.22° C | 63% | 982 hPa | 0 mm | - | - | - |
| 1777425221 | 12.78° C | 61% | 982.1 hPa | 0 mm | - | - | - |
| 1777424921 | 13.33° C | 56% | 982 hPa | 0 mm | - | - | - |
| 1777424620 | 13.33° C | 53% | 982 hPa | 0 mm | - | - | - |
| 1777424319 | 13.33° C | 53% | 982 hPa | 0 mm | - | - | - |
| 1777424019 | 13.33° C | 53% | 982.1 hPa | 0 mm | - | - | - |
| 1777423718 | 13.89° C | 52% | 982 hPa | 0 mm | - | - | - |
| 1777423418 | 13.89° C | 52% | 981.9 hPa | 0 mm | - | - | - |
| 1777423117 | 13.89° C | 52% | 981.7 hPa | 0 mm | - | - | - |
| 1777422816 | 13.89° C | 53% | 981.9 hPa | 0 mm | - | - | - |
| 1777422515 | 13.89° C | 50% | 981.6 hPa | 0 mm | - | - | - |
| 1777422215 | 14.44° C | 51% | 981.5 hPa | 0 mm | - | - | - |
| 1777421914 | 14.44° C | 48% | 981.4 hPa | 0 mm | - | - | - |
| 1777421612 | 14.44° C | 49% | 981.2 hPa | 0 mm | - | - | - |
| 1777421312 | 14.44° C | 47% | 981.3 hPa | 0 mm | - | - | - |
| 1777421011 | 15° C | 46% | 981.3 hPa | 0 mm | - | - | - |
| 1777420710 | 15° C | 48% | 981.2 hPa | 0 mm | - | - | - |
| 1777420410 | 15° C | 46% | 981.2 hPa | 0 mm | - | - | - |
| 1777420109 | 15° C | 45% | 981.2 hPa | 0 mm | - | - | - |
| 1777419808 | 15° C | 47% | 981.3 hPa | 0 mm | - | - | - |
| 1777419507 | 15.56° C | 46% | 981.4 hPa | 0 mm | - | - | - |
| 1777419207 | 15.56° C | 45% | 981.3 hPa | 0 mm | - | - | - |
* Rain latest hour (hover to see other rain measurements)
** Current wind speed in m/s (hover to see current wind gust speed)